Regional Weather Roundup
Issued by NWS Mt. Holly, NJ

Home | Current Version | Previous Version | Text Only | Print | Product List | Glossary On
Versions: 1 2 3 4 5 6 7 8 9 10 11 12 13 14 15 16 17 18 19 20 21 22 23 24 25 26 27 28 29 30 31 32 33 34 35 36 37 38 39 40 41 42 43 44 45 46 47 48 49 50
000
ASUS41 KPHI 291810
RWRPHI

REGIONAL WEATHER ROUNDUP
NATIONAL WEATHER SERVICE MOUNT HOLLY NJ
200 PM EDT TUE JUL 29 2014

NOTE:  "FAIR" INDICATES FEW OR NO CLOUDS BELOW 12,000 FEET WITH NO
SIGNIFICANT WEATHER AND/OR OBSTRUCTIONS TO VISIBILITY.

 * = STATION DOES NOT REPORT PRECIPITATION (E.G. RAIN, SNOW, ETC.)
        OR FOG.

NJZ015>026-291900-
SOUTHERN NEW JERSEY

CITY           SKY/WX    TMP DP  RH WIND       PRES   REMARKS
POMONA         CLOUDY    76  54  46 W6        29.89S
6HR MIN TEMP:  65; 6HR MAX TEMP:  77;

RIO GRANDE*    CLOUDY    73  54  49 W7        29.92S
MILLVILLE      CLOUDY    75  55  49 SW5       29.90S
WRIGHTSTOWN    PTSUNNY   73  53  49 W10       29.88R
MOUNT HOLLY    CLOUDY    74  53  48 N6        29.90R
TRENTON        CLOUDY    73  50  44 W8        29.89S
6HR MIN TEMP:  63; 6HR MAX TEMP:  74;


$$
NJZ001>014-291900-
NORTHERN NEW JERSEY

CITY           SKY/WX    TMP DP  RH WIND       PRES   REMARKS
SUSSEX         PTSUNNY   72  52  49 VRB3      29.89R
ANDOVER*         N/A     73  51  46 W6        29.90R
MORRISTOWN     PTSUNNY   72  50  46 NW8G17    29.89R
NEWARK         PTSUNNY   76  50  40 NW7       29.87S
TETERBORO      PTSUNNY   76  49  38 W10       29.86S
CALDWELL       PTSUNNY   73  49  42 NW10      29.88S
SOMERVILLE     PTSUNNY   74  50  42 N9        29.87S
ALLAIRE*       PTSUNNY   75  52  43 W10       29.89S
TOMS RIVER*    MOSUNNY   77  48  36 W8        29.89S

$$
PAZ043-044-047-054-055-060>062-066>071-291900-
EASTERN PENNSYLVANIA

CITY           SKY/WX    TMP DP  RH WIND       PRES   REMARKS
PHILADELPHIA   CLOUDY    74  51  44 VRB6      29.90S
6HR MIN TEMP:  66; 6HR MAX TEMP:  75;

NORTH PHILA    CLOUDY    76  52  43 VRB6      29.91S
BLUE BELL      PTSUNNY   72  54  53 CALM      29.90S
DOYLESTOWN     CLOUDY    73  53  49 NW8       29.90R
QUAKERTOWN*    PTSUNNY   72  54  53 N7        29.92S
POTTSTOWN      CLOUDY    71  54  54 NW8       29.92S
LANCASTER      CLOUDY    70  55  59 W6        29.92S
COATESVILLE    PTSUNNY   70  70 100 NW7       29.93S
READING        PTSUNNY   73  53  49 W7        29.90S
6HR MIN TEMP:  63; 6HR MAX TEMP:  73;

ALLENTOWN      MOSUNNY   73  48  41 W9G18     29.90S
6HR MIN TEMP:  61; 6HR MAX TEMP:  75;

MOUNT POCONO   PTSUNNY   65  45  48 W9        29.93S
6HR MIN TEMP:  56; 6HR MAX TEMP:  66;

HAZLETON       CLOUDY    63  50  63 NW8       29.97R
WILKES BARRE   CLOUDY    70  47  43 NW12      29.92S

$$
DEZALL-MDZ008-012-015-019-020-291900-
DELAWARE AND EASTERN MARYLAND

CITY           SKY/WX    TMP DP  RH WIND       PRES   REMARKS
WILMINGTON     CLOUDY    74  54  49 NW5       29.91S
6HR MIN TEMP:  65; 6HR MAX TEMP:  75;

DOVER          PTSUNNY   74  59  59 SW6       29.89S
GEORGETOWN     CLOUDY    75  56  51 VRB7      29.92R
6HR MIN TEMP:  67; 6HR MAX TEMP:  76;

EASTON         MOSUNNY   75  55  50 NW8       29.96R
PATUXENT       MOSUNNY   78  50  37 NW14G29   29.93R
OCEAN CITY     CLOUDY    71  61  70 E7        29.92R
WALLOPS ISLAND PTSUNNY   76  58  53 NW9       29.93R
CAMBRIDGE      MOSUNNY   77  52  41 W8G18     29.92S
SALISBURY      PTSUNNY  N/A N/A N/A MISG      29.91S

$$
PAZ001-021-NYZ056-072-MDZ011-DCZ001-291900-
OTHER NEARBY LOCATIONS

CITY           SKY/WX    TMP DP  RH WIND       PRES   REMARKS
HARRISBURG     CLOUDY    71  53  52 W8        29.91F
STATE COLLEGE  CLOUDY    64  46  52 NW6       29.96F
WILLIAMSPORT   CLOUDY    70  46  42 N9        29.92S
BINGHAMTON     CLOUDY    63  51  65 NW8       29.94R
NEW YORK CITY  MOSUNNY   72  52  49 W10G17    29.90R
BALTIMORE      PTSUNNY   72  50  45 W9G18     29.92S
WASHINGTON DC  MOSUNNY   75  48  38 NW14G21   29.95S

$$


USA.gov is the U.S. government's official web portal to all federal, state and local government web resources and services.